When you browse on this site, cookies collect data to enhance your experience and personalize the content and advertising you see.
Visit our Privacy Policy to learn more. By continuing to use the site, you agree to this use of cookies and data.
EN

Hourly Weather Kadnikovo

Today, 18 September, Friday

Time Temperature Precipitation Wind Pressure Humidity
00:00 +6°C° 0.6 mm 7 mps 747 mmHg 86%
01:00 +6°C° 0.6 mm 7 mps 748 mmHg 87%
02:00 +6°C° 0 mm 7 mps 749 mmHg 89%
03:00 +6°C° 0.4 mm 7 mps 749 mmHg 88%
04:00 +6°C° 0.4 mm 7 mps 749 mmHg 88%
05:00 +8°C° 0.4 mm 7 mps 749 mmHg 88%
06:00 +6°C° 0.1 mm 7 mps 750 mmHg 86%
07:00 +6°C° 0.1 mm 7 mps 751 mmHg 84%
08:00 +7°C° 0 mm 6 mps 752 mmHg 81%
09:00 +8°C° 0 mm 6 mps 752 mmHg 79%
10:00 +8°C° 0 mm 6 mps 753 mmHg 76%
11:00 +9°C° 0 mm 6 mps 754 mmHg 73%
12:00 +9°C° 0 mm 6 mps 754 mmHg 70%
13:00 +10°C° 0 mm 6 mps 754 mmHg 67%
14:00 +12°C° 0 mm 5 mps 755 mmHg 62%
15:00 +12°C° 0 mm 4 mps 755 mmHg 61%
16:00 +12°C° 0 mm 4 mps 755 mmHg 61%
17:00 +12°C° 0 mm 3 mps 755 mmHg 61%
18:00 +11°C° 0 mm 3 mps 755 mmHg 65%
19:00 +10°C° 0 mm 3 mps 755 mmHg 68%
20:00 +9°C° 0 mm 2 mps 755 mmHg 72%
21:00 +9°C° 0 mm 3 mps 755 mmHg 71%
22:00 +10°C° 0 mm 3 mps 755 mmHg 70%
23:00 +11°C° 0 mm 3 mps 755 mmHg 69%

Tomorrow, 19 September, Saturday

Time Temperature Precipitation Wind Pressure Humidity
00:00 +11°C° 0 mm 3 mps 755 mmHg 73%
01:00 +10°C° 0 mm 3 mps 755 mmHg 76%
02:00 +10°C° 0 mm 3 mps 755 mmHg 80%
03:00 +10°C° 0 mm 3 mps 755 mmHg 83%
04:00 +10°C° 0 mm 3 mps 755 mmHg 85%
05:00 +9°C° 0 mm 3 mps 755 mmHg 88%
06:00 +10°C° 0 mm 3 mps 755 mmHg 87%
07:00 +10°C° 0 mm 3 mps 755 mmHg 85%
08:00 +11°C° 0 mm 4 mps 755 mmHg 84%
09:00 +12°C° 0 mm 4 mps 755 mmHg 75%
10:00 +13°C° 0 mm 4 mps 755 mmHg 67%
11:00 +14°C° 0 mm 4 mps 755 mmHg 58%
12:00 +14°C° 0 mm 4 mps 755 mmHg 55%
13:00 +15°C° 0 mm 5 mps 755 mmHg 53%
14:00 +15°C° 0 mm 5 mps 755 mmHg 50%
15:00 +14°C° 0 mm 4 mps 755 mmHg 55%
16:00 +14°C° 0 mm 3 mps 755 mmHg 60%
17:00 +13°C° 0 mm 3 mps 756 mmHg 65%
18:00 +12°C° 0 mm 3 mps 756 mmHg 68%
19:00 +11°C° 0 mm 3 mps 756 mmHg 70%
20:00 +10°C° 0 mm 3 mps 756 mmHg 73%
21:00 +9°C° 0 mm 3 mps 757 mmHg 76%
22:00 +8°C° 0 mm 2 mps 757 mmHg 80%
23:00 +8°C° 0 mm 2 mps 757 mmHg 83%

Day after tomorrow, 20 September, Sunday

Time Temperature Precipitation Wind Pressure Humidity
00:00 +7°C° 0 mm 2 mps 757 mmHg 85%
01:00 +6°C° 0 mm 2 mps 758 mmHg 88%
02:00 +6°C° 0 mm 2 mps 758 mmHg 91%
03:00 +5°C° 0 mm 2 mps 758 mmHg 93%
04:00 +5°C° 0 mm 2 mps 758 mmHg 95%
05:00 +5°C° 0 mm 2 mps 758 mmHg 97%
06:00 +6°C° 0 mm 2 mps 758 mmHg 92%
07:00 +7°C° 0 mm 2 mps 759 mmHg 88%
08:00 +8°C° 0 mm 2 mps 759 mmHg 83%
09:00 +9°C° 0 mm 2 mps 759 mmHg 75%
10:00 +12°C° 0 mm 2 mps 759 mmHg 66%
11:00 +14°C° 0 mm 2 mps 759 mmHg 58%
12:00 +13°C° 0 mm 3 mps 759 mmHg 56%
13:00 +14°C° 0 mm 3 mps 758 mmHg 55%
14:00 +14°C° 0 mm 3 mps 758 mmHg 53%
15:00 +15°C° 0 mm 2 mps 758 mmHg 58%
16:00 +14°C° 0 mm 2 mps 758 mmHg 62%
17:00 +14°C° 0 mm 1 mps 757 mmHg 67%
18:00 +12°C° 0 mm 2 mps 757 mmHg 73%
19:00 +10°C° 0 mm 2 mps 757 mmHg 79%
20:00 +8°C° 0 mm 2 mps 757 mmHg 84%
21:00 +8°C° 0 mm 2 mps 757 mmHg 87%
22:00 +8°C° 0 mm 2 mps 757 mmHg 89%
23:00 +7°C° 0 mm 2 mps 757 mmHg 91%

21 September, Monday

Time Temperature Precipitation Wind Pressure Humidity
00:00 +8°C° 0 mm 3 mps 757 mmHg 89%
01:00 +8°C° 0 mm 3 mps 757 mmHg 88%
02:00 +8°C° 0 mm 3 mps 756 mmHg 86%
03:00 +8°C° 0 mm 3 mps 756 mmHg 86%
04:00 +9°C° 0 mm 3 mps 756 mmHg 86%
05:00 +9°C° 0 mm 3 mps 756 mmHg 86%
06:00 +9°C° 0 mm 3 mps 756 mmHg 84%
07:00 +10°C° 0 mm 3 mps 756 mmHg 83%
08:00 +11°C° 0 mm 3 mps 756 mmHg 82%
09:00 +12°C° 0 mm 3 mps 755 mmHg 78%
10:00 +14°C° 0 mm 3 mps 755 mmHg 74%
11:00 +16°C° 0 mm 3 mps 755 mmHg 70%
12:00 +17°C° 0 mm 3 mps 755 mmHg 67%
13:00 +18°C° 0 mm 3 mps 755 mmHg 64%
14:00 +19°C° 0 mm 3 mps 755 mmHg 61%
15:00 +18°C° 0 mm 3 mps 755 mmHg 65%
16:00 +18°C° 0 mm 2 mps 754 mmHg 70%
17:00 +17°C° 0 mm 2 mps 754 mmHg 74%
18:00 +16°C° 0 mm 2 mps 754 mmHg 80%
19:00 +14°C° 0 mm 2 mps 755 mmHg 86%
20:00 +13°C° 0 mm 2 mps 755 mmHg 92%
21:00 +13°C° 0 mm 2 mps 755 mmHg 93%
22:00 +12°C° 0 mm 2 mps 754 mmHg 94%
23:00 +12°C° 0 mm 2 mps 754 mmHg 95%

22 September, Tuesday

Time Temperature Precipitation Wind Pressure Humidity
00:00 +12°C° 0 mm 2 mps 754 mmHg 95%
01:00 +10°C° 0 mm 2 mps 754 mmHg 95%
02:00 +10°C° 0 mm 3 mps 754 mmHg 95%
03:00 +10°C° 0 mm 3 mps 754 mmHg 94%
04:00 +10°C° 0 mm 3 mps 754 mmHg 94%
05:00 +9°C° 0 mm 3 mps 753 mmHg 94%
06:00 +10°C° 0 mm 3 mps 754 mmHg 90%
07:00 +11°C° 0 mm 3 mps 754 mmHg 86%
08:00 +12°C° 0 mm 3 mps 754 mmHg 83%
09:00 +14°C° 0 mm 4 mps 753 mmHg 75%
10:00 +17°C° 0 mm 4 mps 753 mmHg 68%
11:00 +19°C° 0 mm 4 mps 753 mmHg 61%
12:00 +20°C° 0 mm 4 mps 753 mmHg 58%
13:00 +21°C° 0 mm 4 mps 752 mmHg 56%
14:00 +21°C° 0 mm 4 mps 752 mmHg 53%
15:00 +20°C° 0 mm 4 mps 752 mmHg 59%
16:00 +20°C° 0 mm 3 mps 751 mmHg 64%
17:00 +19°C° 0 mm 3 mps 751 mmHg 70%
18:00 +17°C° 0 mm 3 mps 751 mmHg 74%
19:00 +16°C° 0 mm 3 mps 751 mmHg 79%
20:00 +14°C° 0 mm 3 mps 751 mmHg 84%
21:00 +14°C° 0 mm 3 mps 750 mmHg 85%
22:00 +14°C° 0 mm 3 mps 750 mmHg 87%
23:00 +13°C° 0 mm 3 mps 750 mmHg 88%

23 September, Wednesday

Time Temperature Precipitation Wind Pressure Humidity
00:00 +13°C° 0 mm 3 mps 750 mmHg 89%
01:00 +13°C° 0 mm 3 mps 750 mmHg 90%
02:00 +12°C° 0 mm 3 mps 749 mmHg 90%
03:00 +12°C° 0 mm 4 mps 749 mmHg 90%
04:00 +12°C° 0 mm 4 mps 749 mmHg 89%
05:00 +12°C° 0 mm 4 mps 748 mmHg 89%
06:00 +13°C° 0 mm 4 mps 748 mmHg 84%
07:00 +14°C° 0 mm 5 mps 748 mmHg 80%
08:00 +15°C° 0 mm 5 mps 748 mmHg 76%
09:00 +16°C° 0 mm 5 mps 748 mmHg 70%
10:00 +19°C° 0 mm 5 mps 748 mmHg 64%
11:00 +20°C° 0 mm 5 mps 747 mmHg 57%
12:00 +21°C° 0 mm 5 mps 747 mmHg 55%
13:00 +22°C° 0 mm 5 mps 747 mmHg 53%
14:00 +23°C° 0 mm 5 mps 747 mmHg 51%
15:00 +22°C° 0 mm 5 mps 747 mmHg 55%
16:00 +21°C° 0 mm 4 mps 747 mmHg 59%
17:00 +20°C° 0 mm 4 mps 747 mmHg 63%
18:00 +19°C° 0 mm 4 mps 747 mmHg 65%
19:00 +18°C° 0 mm 4 mps 747 mmHg 67%
20:00 +18°C° 0 mm 4 mps 747 mmHg 69%
21:00 +17°C° 0 mm 4 mps 747 mmHg 71%
22:00 +17°C° 0 mm 4 mps 746 mmHg 73%
23:00 +17°C° 0 mm 3 mps 746 mmHg 75%
Show more